Location: Ar Ranvel
(48.3000°N, 4.8833°W)
Time: 21:49:30
(UTC+00:00)

Meteor 2-10 Rocket - Pass Details

Date: 04 November 2021
Orbit: 733 x 885 km, 81.2° (Epoch: 30 November)

Event Time Altitude Azimuth Distance (km) Brightness Sun altitude
Exits shadow 05:08:55 29° 220° (SW) 1,348 4.4 -20.4°
Drops below altitude 10° 05:11:43 10° 198° (SSW) 2,262 5.8 -20.0°
Sets 05:14:10 0° 191° (S) 3,198 6.6 -19.6°
